Theta_e
343 346 349 354 354 354 354 355 354 353 355 355 355 354 353 354 354 353 354 353 353 353 353 352 352 351 350 351 351 350 350 349 349 349 348 348 348 348 348 347 348 348 349 349 350 350 349 351 350 351 350 350 351 350 349 348 347 346 346 345 345 345 345 345 344 344 344 345 346 346 346 344 342 341 341 340 340 340 339 338 338 336 336 336 337
344 348 351 353 353 354 353 356 354 354 355 355 356 355 355 354 354 353 353 354 353 353 353 352 351 351 350 350 350 350 349 348 348 348 348 348 348 348 349 348 350 349 349 348 349 350 349 349 349 348 349 349 349 349 349 348 346 346 345 345 345 346 347 347 346 347 347 346 343 342 342 343 343 343 342 341 340 339 338 338 338 336 335 338 338
347 348 352 353 355 354 354 355 354 355 355 355 355 354 354 354 353 354 353 353 353 353 352 352 351 351 351 351 350 349 349 349 348 348 348 348 348 349 350 350 350 350 349 349 349 349 349 348 347 347 348 348 348 348 349 348 346 346 345 345 346 346 346 346 346 346 345 344 344 343 342 341 340 341 340 340 340 339 338 338 337 337 335 337 337
346 349 352 353 355 354 353 355 355 355 355 355 355 354 355 355 354 354 354 354 354 353 352 352 352 351 351 351 351 350 349 349 349 349 349 349 349 349 349 349 349 349 349 349 349 348 347 347 346 345 346 346 347 348 348 348 346 345 345 345 345 346 346 345 345 345 344 342 341 340 341 338 339 340 341 341 340 339 338 338 338 338 338 337 337
347 349 352 351 353 354 354 353 354 355 354 355 355 354 354 355 354 354 353 353 353 353 353 353 352 351 351 351 351 351 350 350 350 350 349 349 349 348 349 348 348 349 349 349 348 348 347 345 345 345 346 346 346 346 347 347 346 345 344 344 344 344 344 344 344 343 342 342 341 338 335 336 336 340 340 340 339 338 338 338 338 338 337 337 337
347 350 352 353 353 354 353 353 353 355 354 355 355 354 354 355 354 354 354 353 353 353 353 353 352 352 351 351 351 351 350 349 349 349 349 350 349 349 347 348 347 348 348 347 347 346 346 345 344 345 345 345 346 346 345 346 345 344 343 343 343 342 343 343 342 342 341 341 339 335 333 335 336 337 340 340 339 339 338 338 338 338 337 338 337
348 350 351 351 352 354 354 353 354 354 354 354 354 354 353 352 353 353 353 353 353 353 353 352 352 351 351 351 350 351 350 350 349 349 350 349 348 347 346 345 347 347 347 347 346 346 344 344 344 343 343 345 346 345 345 346 344 344 343 342 342 342 342 342 342 342 340 336 333 334 334 335 337 336 339 339 339 339 338 338 337 337 337 336 336
349 349 349 351 352 353 354 353 353 353 354 354 355 354 353 352 353 353 353 353 354 353 353 352 352 351 350 350 351 351 350 350 350 350 348 347 346 346 347 346 346 346 347 347 346 345 344 344 343 343 344 345 345 344 344 345 343 343 342 342 342 341 341 341 341 341 339 333 333 333 334 334 335 336 340 340 339 339 338 338 338 337 337 336 335
346 348 349 351 352 354 354 353 353 352 353 353 354 354 354 353 353 353 353 353 353 353 353 352 351 351 351 350 350 351 350 350 350 348 347 346 346 345 346 345 346 347 346 345 345 345 344 343 343 343 346 346 345 344 344 343 343 343 344 344 342 341 341 341 341 340 337 334 333 333 333 334 335 337 340 341 341 339 338 337 337 336 336 335 335
346 348 350 351 351 352 353 353 353 353 352 354 354 354 354 353 353 353 353 353 353 353 353 352 351 351 350 350 349 349 350 349 349 348 349 348 347 348 347 346 345 347 346 345 344 344 343 343 343 345 346 346 345 345 344 344 344 344 343 342 341 341 340 340 340 338 334 334 333 335 340 340 336 337 339 338 338 338 335 335 335 334 335 335 335
347 348 350 351 351 353 354 353 353 352 353 353 353 353 353 353 353 353 353 353 353 353 353 353 352 351 350 350 349 350 349 349 349 350 348 348 349 348 347 347 347 348 347 345 343 343 343 343 344 345 345 345 344 343 343 343 343 342 341 339 339 340 340 339 337 333 334 333 335 339 340 340 334 337 339 339 338 337 336 336 335 334 334 335 335
347 349 348 348 352 351 353 352 353 353 352 352 352 352 352 352 353 353 353 353 353 353 353 353 352 351 350 349 348 349 349 348 348 349 349 348 349 348 347 346 346 347 348 346 345 343 343 343 344 344 344 343 342 343 342 342 342 340 340 340 340 342 340 338 334 333 333 334 337 336 335 334 335 337 339 339 337 337 336 336 336 335 335 335 335
345 348 348 348 350 352 352 352 353 354 354 350 352 352 352 352 352 353 353 353 352 353 353 353 352 351 351 350 349 348 348 347 346 343 346 347 348 347 347 347 346 347 348 347 346 344 344 344 343 343 343 343 342 341 341 340 339 339 338 338 341 341 341 339 332 333 334 334 335 334 333 335 337 339 339 338 338 337 337 335 335 336 335 335 334
345 347 348 349 348 352 351 352 352 353 353 353 352 351 352 351 351 351 351 352 352 352 352 352 352 351 351 351 351 349 349 348 347 347 348 348 348 348 347 347 347 347 348 348 346 345 344 343 343 344 343 343 342 341 341 339 339 338 337 337 341 342 342 339 337 335 335 334 335 332 333 336 337 339 338 338 338 338 337 336 335 335 334 334 333
344 345 347 348 348 347 352 351 351 352 352 352 351 351 350 350 350 350 350 352 352 352 352 352 352 351 351 351 350 350 349 348 347 347 347 348 348 348 347 347 346 346 346 347 347 345 345 345 344 344 344 343 342 342 341 339 338 338 338 338 341 343 341 335 334 334 334 335 336 334 333 337 340 339 338 339 338 338 336 336 334 334 333 333 332
345 345 346 346 345 346 348 351 350 350 351 351 351 351 349 349 349 349 350 351 351 352 352 352 352 351 351 351 350 350 350 349 348 348 348 348 348 348 347 347 347 346 346 346 346 347 346 346 345 344 343 342 342 341 340 338 338 337 339 340 341 341 339 336 334 333 334 334 335 336 334 337 340 339 339 339 338 336 334 334 333 333 333 333 332
344 345 344 344 345 346 348 348 349 351 350 350 351 350 349 348 348 349 350 350 351 351 351 351 351 351 351 351 350 350 349 349 348 348 348 348 347 348 347 347 347 346 346 346 346 346 346 346 344 343 342 342 342 340 339 338 338 339 339 340 341 340 339 337 333 334 334 336 336 334 336 336 339 339 338 338 336 335 334 333 334 332 332 332 332
343 343 343 344 344 346 346 347 347 347 348 350 350 350 349 348 346 346 344 343 347 347 350 350 351 351 351 350 350 349 348 349 349 348 347 347 347 348 347 347 347 346 346 346 346 346 346 345 344 343 342 342 341 340 340 339 340 340 340 339 340 341 339 336 333 334 335 338 335 337 336 339 340 339 338 337 336 335 335 334 333 332 331 331 331
341 341 343 344 344 345 346 347 349 349 349 348 348 349 349 346 345 344 344 344 344 344 348 350 350 351 348 348 350 349 348 349 349 346 348 347 347 347 348 347 347 346 345 345 345 346 346 345 344 342 341 341 340 340 340 340 340 340 338 339 341 341 339 336 333 334 337 336 335 335 335 339 339 339 339 338 336 335 334 332 332 331 331 331 331
340 341 341 342 343 343 344 345 346 348 348 348 348 347 349 345 344 346 344 340 342 346 347 349 349 349 347 346 348 348 346 345 346 345 347 346 346 345 347 347 347 346 346 345 345 345 345 345 343 342 341 341 340 341 340 340 340 338 338 340 341 341 336 332 333 334 335 335 337 334 338 340 338 338 339 337 335 334 333 333 332 332 331 331 331
338 339 339 340 342 342 342 343 344 346 348 348 348 347 347 348 346 347 344 344 342 342 342 343 344 344 343 341 344 345 343 343 344 344 345 345 345 346 347 346 347 346 345 345 344 344 345 344 343 342 341 341 340 340 340 340 339 338 337 338 339 332 331 332 333 335 334 337 337 334 339 339 338 339 338 336 335 335 333 332 332 331 331 331 331
335 335 337 339 340 340 341 342 343 344 346 346 348 348 346 346 342 343 345 342 344 340 343 342 346 341 340 340 341 344 341 339 341 345 344 345 345 346 346 345 346 346 345 345 344 343 343 344 343 342 341 340 334 329 333 338 338 337 338 335 329 328 330 332 332 333 335 336 336 336 340 339 339 339 338 336 336 334 333 333 332 330 330 330 330
333 335 334 337 338 340 341 341 343 344 345 346 347 347 345 343 341 340 341 344 344 342 338 340 338 339 340 339 341 342 339 340 342 343 343 345 344 346 345 343 344 344 345 345 344 344 343 344 343 342 340 336 327 326 326 326 329 335 332 328 327 328 329 330 331 333 334 335 333 338 340 339 339 339 338 336 335 334 334 333 331 331 330 329 329
333 334 333 333 334 337 340 342 342 343 344 345 346 345 344 343 341 339 340 338 337 339 337 338 338 338 340 338 338 340 339 337 345 345 344 343 343 343 345 343 344 344 344 344 344 343 343 343 342 340 335 330 326 327 326 325 324 324 326 326 326 326 328 329 331 332 332 337 332 338 341 340 340 339 338 337 335 334 334 333 331 330 331 329 329
331 332 333 331 330 335 339 341 342 343 343 342 344 343 343 343 341 341 340 340 337 335 336 337 337 337 337 338 338 338 336 336 337 338 337 338 338 338 340 338 338 340 342 337 338 340 339 335 335 334 329 329 327 326 326 326 325 324 325 324 325 325 328 330 330 331 332 335 334 338 341 341 340 339 338 336 336 335 333 332 331 330 330 328 328
327 331 330 330 332 336 338 340 341 341 343 342 342 344 343 340 340 340 340 340 339 337 336 334 336 336 337 337 340 335 335 333 333 333 335 335 336 336 337 336 336 337 339 336 336 336 336 335 334 333 330 329 329 329 329 328 325 324 324 324 323 325 326 328 329 330 331 332 335 338 341 341 341 339 338 337 336 336 334 332 331 331 330 328 328
324 323 322 327 333 337 339 340 340 341 341 342 340 339 338 338 338 338 339 337 338 337 336 335 335 335 337 339 337 335 335 333 332 333 335 335 335 336 336 336 336 336 338 338 337 337 336 335 333 332 328 328 328 325 325 324 325 327 325 324 325 326 326 327 328 329 330 331 333 338 341 341 342 340 338 338 337 336 334 333 332 331 330 330 328
318 316 322 326 334 336 338 339 339 339 339 339 337 336 336 337 339 341 337 340 338 336 335 336 336 335 336 335 337 334 334 332 332 333 336 336 336 336 336 336 338 337 336 336 336 335 335 333 331 327 328 327 327 327 326 325 324 325 327 326 326 325 325 326 327 328 329 330 331 336 341 340 341 342 338 338 337 337 336 334 332 331 330 330 328
316 316 317 326 331 334 337 337 338 338 336 336 334 334 335 336 336 334 334 340 332 332 334 336 337 336 335 335 336 332 331 332 332 333 334 335 336 334 333 335 338 336 334 333 334 334 333 331 328 327 323 325 324 325 325 325 323 323 325 327 326 326 325 325 326 327 328 329 330 332 339 341 340 341 339 338 338 336 336 335 334 332 331 330 329
316 315 318 320 327 334 336 336 336 335 334 333 331 330 330 332 333 334 336 335 328 329 331 333 334 334 332 333 334 333 332 332 332 331 332 334 334 332 331 332 334 336 334 332 332 332 331 328 326 326 326 324 325 325 327 325 324 325 325 327 326 326 326 325 325 326 328 329 330 332 337 340 339 339 340 338 338 337 337 336 335 333 332 330 330
313 314 315 317 327 332 333 334 334 335 332 332 328 329 329 330 331 329 329 329 330 332 330 330 330 331 332 333 333 333 332 332 331 331 331 332 332 329 328 330 332 336 335 333 331 331 330 329 328 327 326 324 325 326 326 325 324 324 325 327 327 326 327 326 325 326 327 328 329 330 333 340 339 337 338 338 339 337 337 336 336 334 333 331 331
313 313 315 316 323 327 329 331 331 331 330 330 330 327 327 329 329 327 328 328 330 329 330 330 332 330 333 333 333 332 332 330 331 332 331 331 331 330 329 330 331 333 335 334 332 332 331 330 330 329 328 327 326 326 326 326 325 325 324 325 326 326 327 326 326 325 327 328 328 330 331 335 339 337 337 337 337 339 338 337 336 335 334 332 331
310 313 312 318 321 321 326 325 326 326 327 327 326 324 324 328 325 323 326 330 331 330 329 330 331 332 332 332 333 333 334 332 332 332 332 332 331 331 330 330 331 333 333 334 333 333 332 331 330 330 328 327 327 327 327 326 326 326 326 326 326 326 326 326 326 325 326 327 328 329 330 332 336 338 335 338 336 337 339 337 337 335 334 333 332
310 308 311 316 318 320 322 320 322 322 323 322 322 322 323 323 321 319 324 322 322 323 329 329 332 331 332 331 331 333 333 332 332 331 333 332 331 331 331 331 332 333 331 333 333 333 332 332 330 329 330 327 326 327 327 327 327 326 326 326 326 326 326 325 325 325 326 326 328 328 329 331 332 334 335 337 337 335 335 339 337 337 335 334 334
310 308 312 313 316 317 319 319 322 320 323 321 322 321 318 322 317 316 317 317 319 318 319 324 327 331 331 331 333 333 333 333 332 331 332 332 331 332 332 333 332 332 330 330 332 332 332 332 331 329 328 327 327 328 328 327 327 327 327 326 325 325 325 326 325 325 325 326 327 328 329 330 331 331 333 333 337 336 334 336 339 338 337 336 335
309 309 311 312 314 314 321 318 318 318 317 319 315 316 315 313 316 322 316 317 317 317 316 320 322 323 327 328 330 333 333 332 332 331 331 330 330 330 330 332 333 332 331 329 330 331 330 330 331 331 328 328 327 327 326 326 326 326 326 325 324 325 324 325 325 324 325 325 326 327 328 329 330 330 332 331 332 335 335 335 336 337 338 336 335
309 309 311 310 312 314 318 315 315 316 315 313 311 310 310 311 313 314 313 313 313 313 315 319 321 320 321 323 325 329 330 331 332 332 331 330 330 329 329 330 333 333 331 330 330 331 329 330 329 331 331 328 328 328 327 327 325 324 323 322 322 323 324 325 325 325 324 324 325 326 327 328 329 333 332 331 330 331 333 335 335 335 336 337 337
309 310 310 311 312 312 311 313 314 315 313 311 310 310 311 312 312 315 319 313 313 314 317 319 318 318 320 321 324 329 330 331 331 330 329 332 331 330 329 330 331 332 331 330 329 330 328 330 329 330 331 330 328 327 327 327 326 326 323 320 320 321 322 324 325 327 325 324 325 325 326 328 329 330 331 331 330 330 330 332 334 333 335 334 336
309 309 309 309 309 309 312 316 313 311 310 311 312 310 311 311 311 312 313 313 314 314 316 317 316 317 317 320 327 329 330 328 330 330 329 330 329 329 329 329 330 331 330 328 327 328 329 330 328 328 331 331 329 329 328 326 325 325 326 322 320 320 321 323 325 326 325 325 325 326 325 327 327 328 329 329 330 329 329 330 332 334 334 334 334
308 308 308 308 308 309 310 311 310 310 311 311 311 310 311 312 313 312 314 313 313 317 314 314 315 316 319 317 317 318 321 321 319 321 324 326 327 327 327 329 330 330 329 328 328 328 328 328 328 327 327 328 331 330 329 327 326 325 324 323 324 322 321 322 324 325 326 326 326 327 326 326 326 327 327 328 329 329 329 329 330 331 332 332 334
306 307 307 307 308 310 311 309 309 311 311 309 308 308 308 307 307 309 310 309 313 312 313 312 314 315 315 315 315 315 315 317 317 315 315 324 323 325 324 325 329 328 326 326 327 327 328 328 327 327 327 326 326 328 330 329 325 323 321 322 322 323 324 322 323 324 325 326 326 326 326 326 326 326 327 328 328 328 328 328 328 329 330 331 332
306 306 307 307 307 308 309 309 309 310 310 310 310 308 305 309 308 310 308 309 311 311 311 311 313 315 314 313 314 313 314 316 318 317 316 314 316 317 318 320 322 323 324 325 326 327 326 326 326 323 328 327 325 329 330 327 321 319 315 317 320 321 322 323 321 323 325 325 326 326 326 326 325 326 327 327 327 327 327 327 328 328 329 330 330
307 306 306 306 307 308 308 309 310 310 309 311 308 307 305 306 307 306 311 308 307 310 310 314 314 311 310 311 312 311 313 314 315 318 316 316 317 318 318 319 320 322 320 320 322 322 324 325 324 323 323 326 326 329 328 327 322 321 320 319 314 315 318 319 320 321 322 325 325 325 326 326 326 327 327 327 327 327 327 327 327 327 327 328 329
306 305 304 306 308 310 307 309 310 310 310 312 311 305 308 306 307 310 307 307 309 314 309 309 309 309 310 310 311 310 312 313 313 315 314 314 315 315 316 316 316 318 316 316 318 319 321 322 324 325 325 321 322 324 328 327 325 322 316 317 316 314 312 316 316 320 320 321 323 324 326 326 327 327 328 327 327 327 327 327 326 327 327 328 328
306 305 305 306 309 309 309 309 310 309 310 314 309 309 311 310 310 310 310 310 311 308 309 308 309 314 310 309 309 310 311 312 313 314 317 313 313 314 314 314 315 314 315 315 315 315 317 317 319 321 322 322 321 323 325 328 327 327 322 317 315 313 313 315 318 318 319 320 320 321 323 324 325 326 327 328 328 328 328 327 327 327 327 327 328
306 306 306 307 308 308 308 308 309 309 310 309 308 310 312 310 309 307 306 304 305 306 306 308 308 308 308 308 308 309 310 310 310 313 316 315 312 313 313 314 314 314 314 314 314 315 315 315 316 317 318 321 323 321 320 324 327 327 327 326 323 316 316 319 318 314 321 320 321 321 320 321 322 323 325 326 327 328 329 328 328 327 326 326 327
306 306 306 306 308 309 309 309 310 310 310 309 308 311 309 310 310 309 307 306 306 305 303 304 308 305 306 308 307 308 309 310 310 310 312 313 311 312 313 314 314 314 316 313 313 313 314 315 316 315 315 317 318 316 316 318 323 322 324 326 326 326 325 320 316 317 315 320 323 323 323 322 321 321 321 322 324 326 328 329 329 328 327 327 327
306 306 306 306 307 309 309 309 310 312 310 309 308 309 309 309 308 306 307 305 305 307 305 304 305 309 308 307 307 307 308 309 309 309 311 313 311 310 311 312 313 314 314 312 312 312 312 314 314 314 315 315 315 314 314 316 315 315 320 321 322 324 327 326 325 319 317 315 319 324 325 324 323 323 322 322 322 323 324 326 327 328 328 327 327
307 307 307 305 307 309 310 309 309 311 309 308 309 307 310 309 308 307 307 307 306 307 308 310 308 310 306 306 307 306 306 307 308 308 309 314 315 309 310 311 311 312 314 311 310 311 310 310 311 311 312 313 314 314 313 312 314 313 315 315 318 318 321 325 324 324 318 315 315 317 319 323 325 325 325 325 325 324 324 324 325 326 328 328 327
306 308 306 306 307 309 309 310 309 310 310 308 309 307 307 310 306 306 307 306 308 305 306 307 306 305 306 305 306 306 305 306 305 307 308 310 310 310 310 310 310 312 313 308 308 309 309 309 310 310 310 310 311 312 312 312 313 313 314 314 313 314 315 318 318 316 319 321 315 315 318 318 317 322 325 326 327 327 326 324 324 324 326 327 328
306 307 307 306 307 308 309 309 310 310 310 308 308 307 306 307 307 306 307 307 306 306 306 305 305 304 305 305 305 305 305 305 304 305 307 308 311 312 309 310 312 314 310 308 308 308 308 308 308 308 308 308 308 309 310 311 311 311 311 312 312 312 312 312 312 314 314 313 314 315 316 318 318 318 323 326 326 326 326 327 325 324 324 326 327
Wind_Speed
3 7 4 6 9 11 11 12 14 15 15 15 15 15 15 14 15 15 15 15 15 15 15 15 15 16 17 17 18 18 17 17 17 16 14 15 15 15 15 15 13 13 14 15 14 13 14 14 15 14 14 14 14 14 15 15 13 14 14 14 14 14 14 16 18 17 18 19 19 19 18 17 17 16 15 16 16 16 15 14 11 6 4 12 15
7 5 5 5 10 11 13 13 13 14 15 15 15 15 15 15 14 14 15 16 16 15 15 15 16 16 16 17 17 17 16 16 16 14 14 14 14 14 13 13 13 13 13 13 14 13 13 13 14 14 14 14 14 14 15 15 13 13 14 14 14 13 14 15 16 17 18 17 17 17 18 18 17 17 16 16 16 16 15 14 12 5 6 13 14
9 7 5 5 9 11 9 13 13 14 15 15 15 14 15 15 14 13 14 15 16 16 15 15 15 15 16 15 16 16 15 13 14 13 13 12 14 14 13 13 13 13 13 13 12 13 13 13 13 14 13 13 13 13 15 15 15 14 14 14 14 13 15 16 17 17 17 16 16 17 18 17 16 16 16 15 15 15 14 14 13 11 9 14 13
10 6 5 6 9 10 12 12 12 14 14 14 15 15 14 13 14 13 13 13 14 15 16 15 15 14 15 14 15 15 14 14 13 13 13 12 13 13 14 14 13 13 13 12 12 12 13 13 13 13 13 12 12 13 15 15 15 14 14 13 12 13 15 16 16 16 17 16 15 12 6 8 12 16 15 15 15 15 14 14 14 14 14 13 14
10 7 5 5 5 8 10 11 13 13 15 15 15 15 14 13 13 13 14 14 13 13 13 13 14 14 14 14 14 14 14 13 12 12 12 11 11 13 13 14 14 13 13 12 12 12 13 13 13 13 13 13 13 13 14 15 14 13 13 12 12 14 15 16 16 15 14 13 12 8 7 7 7 15 15 15 15 14 14 14 14 13 13 14 13
9 7 6 6 6 7 11 11 12 14 14 14 15 16 15 14 13 13 14 15 14 14 13 13 13 13 14 13 14 14 14 13 12 12 11 9 8 9 12 14 13 14 13 12 12 13 13 13 13 13 14 13 13 13 14 14 14 13 13 12 12 12 13 14 15 16 14 14 11 6 6 7 7 9 16 15 14 14 13 13 13 13 13 13 13
10 6 5 5 5 5 10 11 11 13 13 14 15 16 16 15 14 14 14 14 14 14 13 13 13 13 13 14 13 13 13 13 12 12 11 10 10 11 9 7 11 13 13 13 13 13 13 13 13 13 14 14 14 14 14 14 13 13 13 12 11 11 11 12 14 14 12 7 5 5 5 6 7 7 14 13 13 13 13 13 12 12 12 12 11
8 6 5 4 5 8 11 9 10 12 13 14 15 16 16 15 14 14 14 14 14 14 14 14 12 12 12 13 13 13 13 13 12 12 12 11 10 9 10 11 11 10 11 12 13 12 13 13 13 13 15 15 14 14 13 13 13 12 12 12 10 10 10 11 12 13 11 5 5 5 5 6 6 6 12 13 12 13 13 13 12 12 12 11 11
8 7 6 5 5 11 11 9 10 11 12 14 14 15 15 15 15 14 14 14 14 14 14 14 14 13 12 12 12 13 13 13 13 13 12 12 11 10 9 10 8 9 10 11 12 11 12 12 13 14 15 15 14 13 13 13 12 12 12 11 9 9 9 9 11 11 6 4 5 5 5 5 5 6 12 13 13 12 12 11 10 12 12 10 10
8 6 6 4 5 11 10 9 9 11 11 13 14 15 15 14 14 14 14 13 13 13 13 14 14 14 12 12 12 12 13 14 13 14 13 13 13 12 11 11 10 8 10 10 12 12 11 11 13 14 16 15 13 12 12 11 11 10 10 10 9 7 7 8 9 6 4 4 5 5 5 5 5 6 11 12 12 12 12 12 9 10 9 10 11
8 7 7 6 7 10 8 8 8 11 11 12 14 14 16 15 14 14 13 13 13 13 12 13 14 13 13 12 12 12 12 13 13 14 15 15 13 12 12 11 10 8 10 10 10 12 12 10 13 14 14 14 12 11 10 9 9 9 7 7 8 7 7 7 6 3 3 4 5 5 8 10 6 5 12 12 12 11 11 11 11 10 9 10 10
8 7 5 5 10 11 8 8 9 9 12 13 12 14 15 13 13 14 13 12 13 12 12 11 12 12 13 13 12 11 12 12 11 10 14 15 14 13 13 12 10 9 10 10 10 12 12 12 13 13 13 13 11 10 8 7 7 6 5 5 3 6 8 7 4 3 4 4 5 5 7 6 5 8 13 12 12 11 11 11 11 10 10 10 11
8 7 5 6 6 9 7 7 8 9 10 14 13 12 12 13 13 12 12 12 12 12 12 11 11 11 11 12 12 12 12 12 13 11 12 13 13 13 13 12 10 8 9 11 11 13 14 14 14 14 13 12 11 9 7 7 6 5 5 5 4 2 10 9 4 4 4 4 4 6 6 5 5 11 12 12 12 11 10 10 10 10 10 10 10
8 8 7 6 5 9 6 7 6 8 9 11 13 12 12 12 12 11 11 12 11 11 11 11 10 10 10 11 11 12 11 11 12 12 12 11 12 12 12 12 11 8 8 11 11 11 13 14 13 13 13 12 10 9 8 7 5 4 5 5 5 6 12 8 5 4 4 4 4 5 5 4 4 10 10 11 11 11 10 9 10 10 9 9 9
9 8 7 5 5 4 9 8 7 8 8 9 11 11 11 10 11 11 11 11 11 11 11 10 10 10 11 11 11 11 11 10 10 11 11 11 11 11 11 11 11 9 7 7 11 11 11 12 12 11 12 12 10 9 8 6 4 4 5 6 6 9 12 6 5 5 4 4 3 4 4 4 8 9 11 11 10 10 10 9 9 10 9 9 9
9 8 7 6 4 3 4 9 10 8 8 9 10 10 10 10 10 10 10 10 11 11 11 10 10 10 10 11 11 11 12 10 10 10 10 11 11 11 11 11 11 10 8 7 8 10 10 10 10 9 10 11 11 10 8 6 5 4 5 6 4 6 10 7 6 6 4 4 3 3 4 4 9 9 10 10 10 9 8 9 9 9 9 9 9
8 7 8 7 5 4 4 4 7 11 9 8 9 10 9 9 10 9 9 11 12 11 10 10 10 10 10 10 11 11 10 11 11 10 11 11 11 11 11 11 11 10 8 7 8 10 10 10 10 9 8 9 11 10 8 5 4 3 4 5 2 4 7 6 5 6 5 4 3 4 4 4 7 8 10 9 9 9 8 8 9 8 8 9 8
7 6 7 6 5 5 4 4 5 5 5 8 9 9 8 10 9 5 8 5 9 9 10 10 10 10 10 10 11 11 11 10 11 11 11 10 10 10 11 11 11 11 9 7 7 9 11 10 10 9 7 7 10 10 8 5 4 4 4 2 2 6 8 5 4 5 5 5 4 3 3 5 8 9 10 10 9 9 8 8 7 8 8 8 8
6 5 5 7 6 6 5 5 5 5 5 4 4 7 10 12 9 10 10 10 8 7 8 9 10 10 10 10 10 12 11 11 11 11 10 10 10 10 9 10 10 10 9 7 6 7 10 10 10 9 7 6 8 9 8 6 5 5 5 3 7 8 10 5 4 4 4 5 4 4 4 8 8 9 11 11 10 9 8 8 8 7 7 7 7
6 5 5 5 6 6 6 6 5 4 4 4 5 4 8 11 9 11 11 8 6 8 8 8 8 9 9 8 9 9 10 9 12 10 11 10 9 7 8 9 10 10 8 7 5 5 8 10 10 9 7 5 7 9 9 7 7 6 6 4 8 10 6 4 4 4 3 3 4 4 5 9 9 9 10 10 11 10 9 8 8 7 7 7 6
5 4 4 4 6 6 6 6 6 7 5 5 4 4 5 10 9 10 9 12 10 6 6 6 6 4 5 5 5 5 4 4 6 5 11 7 8 8 9 10 10 9 9 8 5 3 4 9 9 9 8 6 7 9 9 7 8 7 6 5 6 5 5 5 4 3 3 3 3 3 8 8 9 9 10 10 10 10 9 8 7 7 7 6 6
6 4 3 4 6 5 6 6 6 6 5 4 3 3 3 5 4 4 5 5 7 6 3 4 7 4 4 3 4 5 5 5 4 7 5 6 8 9 9 10 10 10 9 9 8 5 3 2 7 7 7 8 6 3 4 6 7 7 6 6 4 4 4 5 5 4 4 3 4 3 8 9 8 9 9 9 9 10 9 8 8 7 6 6 6
6 4 3 3 3 5 6 6 7 6 5 5 3 4 5 4 4 5 4 6 5 6 3 2 3 4 5 4 3 4 4 4 5 5 5 9 8 10 10 10 9 10 10 9 8 6 5 3 4 6 6 9 4 2 2 2 4 5 5 4 3 4 4 4 4 4 4 4 4 5 8 8 9 9 9 8 8 8 8 8 7 7 6 5 5
5 4 4 2 3 3 6 7 6 6 4 4 4 4 4 4 4 4 4 3 4 2 4 3 3 3 3 2 2 3 3 3 6 8 8 4 5 8 10 10 10 10 11 8 9 7 6 4 2 7 4 3 3 2 2 2 3 2 3 3 3 4 4 4 3 3 4 4 4 7 7 8 8 9 8 8 8 7 7 7 7 6 6 5 5
3 3 3 3 3 3 4 5 6 5 5 3 4 4 4 4 5 4 3 5 4 3 3 4 3 4 3 1 1 3 3 3 4 3 4 4 2 0 2 5 3 4 7 3 3 4 4 1 1 4 3 2 3 2 2 2 3 3 2 2 3 3 4 4 3 3 3 3 4 7 7 7 8 8 8 8 8 8 7 7 6 6 6 5 4
3 4 4 3 3 3 4 5 6 6 4 3 3 4 4 3 4 4 3 3 4 4 3 3 3 3 3 2 3 4 3 3 3 3 3 4 4 5 4 4 4 3 3 4 3 3 3 2 1 2 2 2 3 4 3 2 3 3 2 1 2 3 3 4 4 3 3 4 4 7 6 7 8 8 8 9 9 9 7 7 6 6 6 5 4
4 3 3 3 3 4 5 5 6 5 5 4 3 3 3 2 2 3 4 4 4 4 4 4 3 4 4 4 4 4 4 3 3 4 5 4 5 5 4 3 4 4 3 4 4 3 3 3 2 2 2 2 2 4 3 2 1 2 2 2 0 2 4 4 4 4 3 3 2 5 5 7 7 8 8 8 9 9 8 8 7 6 6 6 4
5 3 3 3 4 5 5 6 5 5 4 4 4 3 3 4 4 5 3 4 4 4 4 4 4 4 4 4 4 5 5 5 4 4 5 4 5 4 3 4 4 4 4 4 4 3 3 3 2 3 2 1 1 2 4 2 1 1 1 0 2 2 3 4 4 4 4 4 3 5 5 7 6 7 8 8 9 9 9 8 7 7 7 6 5
6 4 4 5 4 5 6 6 5 5 4 4 4 3 4 4 3 3 3 5 3 3 4 4 4 4 3 4 4 5 4 4 5 5 4 5 5 4 3 3 3 3 3 3 4 4 4 3 3 3 2 2 1 1 2 3 2 2 2 2 2 3 3 3 4 4 4 4 4 5 7 8 7 7 8 8 9 9 9 8 8 7 7 7 6
6 5 5 4 4 5 6 6 5 5 4 4 4 4 4 4 4 4 3 4 2 0 3 4 4 4 4 3 4 5 6 6 5 5 5 5 5 5 4 2 2 3 4 4 3 4 4 3 3 3 3 3 3 2 2 2 3 3 3 3 3 3 3 3 4 4 4 4 5 4 7 8 8 8 7 9 10 9 9 9 9 8 7 7 7
6 6 5 5 5 6 6 6 6 6 4 4 3 4 4 4 4 3 3 3 2 2 2 2 3 4 4 4 4 5 5 4 4 4 4 4 4 4 4 3 3 3 4 3 3 3 3 4 4 4 4 3 3 2 2 3 2 3 3 3 4 3 4 4 3 4 4 5 5 5 5 9 9 9 8 8 8 10 10 9 9 8 7 7 7
8 7 6 5 6 6 7 6 6 5 5 5 4 4 4 4 4 3 3 1 2 2 2 2 3 2 1 1 2 2 1 1 2 3 4 4 3 4 6 5 5 1 1 3 3 3 3 3 3 3 3 2 2 2 2 2 3 3 3 4 3 4 4 4 4 4 4 5 5 5 5 5 9 10 9 8 9 9 10 10 9 8 8 6 6
4 8 8 7 8 7 7 5 5 4 6 6 5 3 4 4 4 3 4 4 3 2 1 1 4 4 4 3 3 2 2 1 1 2 2 2 2 2 3 5 4 2 1 2 4 3 3 2 2 2 1 1 2 3 2 2 4 4 2 4 4 5 4 4 4 4 5 5 5 5 4 5 5 9 10 9 10 9 9 10 10 9 9 8 8
7 4 5 7 5 4 5 5 5 6 5 4 4 4 4 4 2 2 2 3 3 4 2 2 1 2 1 1 1 1 2 3 3 3 3 2 1 0 2 3 4 3 2 2 3 3 3 2 1 0 2 2 3 3 4 4 4 4 4 4 4 4 4 4 5 5 4 5 4 4 4 4 4 4 5 9 10 9 9 9 11 10 9 9 10
6 4 6 7 5 5 5 5 5 5 5 4 5 4 3 4 3 3 2 2 2 4 4 3 3 3 3 3 2 1 1 2 1 3 2 2 1 2 4 4 3 3 3 1 3 4 4 3 3 1 1 2 3 3 3 4 4 5 5 4 5 3 4 5 4 5 5 5 4 5 4 4 4 4 4 4 6 9 9 9 9 10 10 10 10
9 8 5 5 6 6 6 6 5 5 4 4 3 3 4 4 3 3 3 2 3 3 4 4 2 1 2 3 1 1 1 2 1 0 1 3 1 4 0 1 2 4 5 7 6 4 3 3 3 2 0 2 3 3 2 3 4 6 6 5 5 4 4 4 5 5 5 4 4 5 4 4 4 4 4 4 4 5 10 9 9 9 10 11 11
8 8 8 6 6 5 4 6 6 5 4 3 3 3 4 4 3 2 2 2 4 3 3 4 3 2 1 1 1 1 3 3 2 1 2 3 4 1 4 0 0 2 3 5 3 1 3 1 2 2 2 2 2 4 4 3 5 5 6 5 4 4 5 5 5 5 2 5 6 5 4 5 5 6 5 5 5 5 6 10 10 9 10 10 11
5 7 8 9 8 6 6 5 5 4 4 4 3 4 4 4 4 3 3 4 3 3 4 3 2 2 2 1 2 2 2 2 2 1 2 4 3 0 1 2 3 2 2 4 3 2 5 5 3 3 4 3 4 5 4 3 5 6 5 5 4 5 5 5 5 4 4 6 5 6 7 6 5 5 5 5 5 5 5 7 9 9 10 11 11
5 5 5 4 5 5 6 5 6 5 4 5 4 5 5 5 4 4 5 4 4 4 3 4 3 3 3 3 4 3 3 3 3 1 1 1 1 3 4 2 1 2 3 2 3 2 2 2 3 2 2 4 4 3 2 2 4 6 6 5 4 5 4 4 4 5 5 7 6 6 3 5 5 5 6 5 5 5 6 4 4 5 7 12 12
5 5 5 5 5 5 5 6 6 6 5 5 5 5 5 4 5 4 6 4 3 4 4 3 3 4 4 4 4 3 2 2 2 2 2 2 3 3 2 1 2 3 3 3 2 1 2 3 4 4 3 2 2 3 4 2 3 5 6 6 4 3 4 4 5 6 6 6 7 4 5 4 4 5 6 5 5 5 5 5 5 5 5 7 11
4 5 6 6 6 8 8 8 6 7 8 6 4 5 4 3 3 3 5 1 3 3 3 2 4 4 4 4 4 4 3 3 3 3 3 3 4 3 2 3 3 3 4 4 3 3 3 3 3 2 3 3 2 1 3 4 2 3 5 6 6 3 2 4 5 5 6 7 5 6 6 5 5 5 6 4 5 5 5 6 5 4 5 4 6
5 4 7 8 6 5 7 8 6 6 7 8 7 4 3 5 5 4 3 3 4 5 3 2 3 4 4 3 3 3 3 3 2 3 4 4 4 3 3 4 4 4 4 3 3 1 1 2 2 3 3 2 2 2 2 3 2 2 1 5 4 5 2 3 4 5 5 5 5 6 5 6 6 6 4 5 5 5 5 5 5 5 5 5 5
8 8 6 6 6 6 5 7 7 8 6 6 6 5 2 1 4 3 5 3 1 0 2 2 2 5 4 3 3 3 3 3 3 3 5 5 5 5 4 4 6 5 6 6 5 4 4 4 4 3 2 3 3 2 2 1 2 2 2 1 3 2 2 1 1 4 5 5 4 5 5 6 7 5 4 4 4 5 5 5 6 6 6 6 6
5 5 5 7 6 6 5 6 7 6 7 5 4 4 4 3 3 5 3 4 3 2 3 3 3 4 4 3 3 3 3 3 3 4 5 5 5 6 5 6 6 5 6 6 5 6 6 6 5 4 2 4 2 1 1 1 1 4 2 2 1 1 3 2 4 5 2 5 4 6 5 6 5 5 3 5 5 5 5 5 6 6 6 6 6
7 8 8 8 7 9 8 7 8 7 6 4 5 6 6 5 4 4 4 6 5 4 3 2 2 2 3 4 2 2 3 3 3 4 5 5 5 5 6 6 6 5 5 6 6 5 6 6 6 6 4 2 3 2 2 2 2 1 3 2 0 1 2 1 4 4 3 2 2 4 3 4 3 3 4 5 4 4 4 5 6 5 6 6 6
9 7 7 8 8 8 6 5 5 5 6 4 6 7 7 7 6 6 4 3 5 5 5 5 2 2 3 0 2 3 3 3 4 4 4 5 6 5 5 6 6 6 6 6 5 5 7 7 6 5 6 5 3 4 4 3 4 3 1 2 1 1 1 1 2 3 4 1 2 0 2 4 4 4 4 4 5 5 4 5 5 5 5 6 6
8 6 7 7 7 8 8 7 7 6 5 5 5 6 6 7 8 8 7 8 8 4 2 2 5 2 2 3 2 2 2 3 3 4 5 4 5 5 6 6 6 6 4 6 7 6 5 5 5 7 5 5 5 6 5 4 2 6 5 4 2 0 1 1 1 2 3 4 3 4 3 1 2 3 4 5 5 5 5 5 6 6 6 5 6
7 7 8 8 8 9 9 9 7 6 6 6 6 6 8 6 5 5 5 6 7 7 5 4 2 3 3 3 2 3 3 2 3 4 4 4 5 5 6 6 7 6 6 6 6 4 5 5 5 6 6 6 6 6 5 5 4 3 5 5 4 3 1 1 2 1 3 4 5 4 1 1 2 2 4 4 3 4 4 4 5 5 5 6 6
10 12 11 8 7 8 9 7 7 6 6 6 7 5 6 8 7 6 4 4 3 3 4 3 4 3 4 2 3 2 3 2 2 3 3 4 4 5 6 6 7 6 5 6 5 5 6 6 6 6 6 6 5 5 5 4 5 5 4 5 4 4 2 2 1 2 2 2 3 2 6 5 5 1 1 1 3 4 5 5 5 6 6 6 6
6 5 4 6 7 7 8 8 8 7 7 7 7 6 5 6 6 5 6 5 2 2 4 5 4 3 4 3 3 3 2 3 3 4 3 4 5 5 6 6 6 6 5 5 5 5 5 6 5 5 5 6 5 5 5 4 4 5 5 3 5 4 4 3 4 5 3 3 4 5 5 7 8 4 5 5 4 4 4 4 5 5 6 6 6
7 7 8 8 7 8 8 9 10 7 6 7 7 8 6 6 7 7 6 6 4 4 5 4 4 3 4 4 4 4 2 3 3 4 3 4 4 4 6 5 4 5 5 6 5 5 5 5 5 6 6 6 5 5 5 5 4 5 6 5 5 4 4 3 4 4 3 2 4 4 5 5 6 9 5 5 5 5 4 4 5 5 5 5 6
Wind_Direction
183 138 134 145 153 156 150 134 134 130 125 122 119 119 120 119 117 119 118 115 113 111 108 110 111 115 118 118 119 116 115 116 116 118 123 127 121 120 121 128 121 119 121 124 128 127 127 124 123 122 122 120 120 118 118 118 118 120 121 115 116 121 120 117 112 112 111 109 107 106 103 104 104 101 97 96 95 94 93 90 87 71 72 84 82
146 124 127 146 146 154 151 134 137 131 127 124 120 120 119 122 122 122 121 120 117 115 114 115 118 117 116 115 115 115 116 115 117 118 117 115 116 115 114 113 114 117 117 119 125 125 125 124 121 120 120 119 121 121 119 117 119 116 113 117 117 111 106 107 113 115 112 108 105 105 109 111 109 107 105 101 100 98 96 94 83 62 81 83 83
114 120 127 150 146 153 144 139 137 132 128 127 122 121 121 123 123 121 121 119 119 118 117 116 117 115 115 115 115 116 114 112 116 114 115 119 121 121 119 119 122 123 121 121 124 123 125 125 124 123 123 126 126 124 121 119 119 116 115 118 109 111 114 115 115 113 110 108 110 110 107 107 106 105 106 105 104 103 101 98 95 89 88 84 79
116 116 126 144 144 149 150 141 138 134 129 128 125 123 121 121 123 122 119 116 112 115 118 117 116 116 115 114 114 114 112 111 112 115 117 120 121 123 124 125 124 123 123 123 124 125 126 128 128 129 129 129 130 129 126 119 119 116 114 109 97 101 114 115 114 113 111 111 110 107 93 102 105 107 107 106 103 102 100 98 96 92 90 87 84
112 123 118 118 137 145 148 143 141 137 132 130 130 127 124 122 123 122 122 117 113 112 111 112 113 114 114 113 113 112 113 114 115 115 116 118 125 129 129 126 125 125 125 125 126 127 128 130 131 131 130 132 134 132 128 122 119 111 106 106 107 113 112 115 113 110 105 99 97 96 106 108 111 108 107 106 103 101 100 97 92 91 88 87 85
113 116 119 118 126 144 149 150 142 140 136 136 134 130 128 126 128 126 124 121 120 117 114 113 115 117 119 119 117 117 118 119 118 116 116 115 120 123 128 130 131 128 127 124 125 127 129 130 134 135 133 135 134 130 128 123 120 113 106 104 105 110 112 113 111 110 105 99 92 92 96 93 97 109 111 110 109 105 101 99 96 92 89 87 87
114 106 107 115 124 137 145 149 144 142 140 139 136 133 131 133 133 130 124 123 123 122 121 120 120 122 124 126 126 124 124 125 122 113 105 90 91 94 92 119 127 128 124 124 123 124 128 132 135 136 135 133 132 132 128 122 121 114 108 105 103 105 107 109 108 103 95 84 86 91 92 100 102 102 112 111 107 106 104 103 102 99 96 90 89
101 102 107 115 122 140 142 152 149 143 143 140 139 136 135 136 136 133 131 131 130 131 129 128 127 128 126 127 130 129 128 124 116 107 100 97 95 95 115 124 126 118 122 122 120 124 129 132 134 137 133 132 131 129 127 122 118 113 108 104 104 104 103 104 105 104 97 88 94 102 101 101 110 115 113 106 106 105 101 97 92 91 91 92 84
103 111 119 121 130 137 144 155 152 143 143 142 139 139 135 137 138 137 137 137 136 134 133 132 134 132 127 126 131 129 125 122 118 118 114 118 117 115 112 115 117 128 120 120 122 125 131 135 139 136 130 128 127 124 118 117 117 110 97 94 98 108 106 107 107 100 95 95 93 87 88 89 108 112 114 115 111 107 101 94 94 93 97 97 91
109 109 116 104 117 133 138 146 150 148 142 143 143 141 137 137 138 138 139 139 137 137 137 137 135 135 134 132 132 131 131 132 131 129 129 124 117 119 116 114 126 137 124 121 125 124 133 141 140 135 131 125 126 121 116 104 108 102 93 95 93 107 112 106 97 89 86 94 95 93 100 103 97 101 115 110 108 104 99 100 100 99 102 100 97
112 115 117 109 118 124 122 137 151 150 145 146 145 142 141 141 141 140 141 141 139 139 138 138 137 136 138 138 137 136 136 138 138 137 132 127 128 122 119 115 126 131 123 117 117 126 134 143 132 126 121 123 121 124 108 96 110 112 108 106 111 106 118 106 83 61 76 96 100 102 101 90 90 91 112 113 112 112 106 97 96 100 95 91 88
109 106 105 122 123 126 121 140 149 147 149 142 138 141 143 142 143 143 142 142 142 141 141 137 137 139 140 141 143 141 142 141 134 134 136 133 129 128 128 129 136 135 129 127 121 125 131 133 130 124 125 127 124 108 102 89 73 58 48 43 70 121 128 115 78 63 64 70 84 90 88 86 94 120 118 118 117 111 111 107 104 99 95 93 93
110 116 104 97 110 122 122 135 141 141 141 145 141 136 142 144 146 145 144 145 144 143 142 138 140 142 143 142 141 140 142 143 138 156 137 126 127 129 129 131 136 141 137 129 124 126 128 132 133 133 128 122 114 111 98 83 70 55 33 23 9 188 139 126 92 71 56 57 74 92 98 99 111 120 119 122 121 113 101 100 99 96 98 96 91
120 111 103 108 114 130 117 128 122 125 131 137 143 144 145 143 146 146 146 147 145 143 141 142 142 143 145 141 139 139 139 143 143 141 130 128 129 128 130 132 136 142 141 132 127 125 127 131 132 128 124 119 117 109 98 92 80 52 26 8 352 178 144 128 114 88 72 68 80 96 98 101 108 118 123 125 116 113 107 101 97 99 97 94 93
121 118 120 109 108 132 135 122 106 111 116 124 138 144 145 144 146 146 146 147 145 142 143 144 145 147 147 143 139 136 139 138 137 141 139 132 131 131 130 133 136 143 145 132 129 128 124 124 123 123 121 120 116 110 106 98 79 46 18 359 5 163 142 133 124 112 96 91 72 86 91 114 124 131 128 120 116 110 108 108 103 96 91 89 92
119 123 114 101 98 106 111 125 117 115 121 126 136 140 141 147 148 146 148 150 145 144 145 147 147 147 148 143 141 140 139 139 138 142 136 134 133 133 132 136 140 146 150 147 133 126 120 113 114 118 121 121 118 114 107 94 75 44 13 354 359 139 148 135 127 123 113 106 107 104 115 114 131 133 124 117 114 110 107 102 95 95 92 91 92
125 114 106 100 90 85 93 109 132 128 122 117 131 141 144 146 149 145 154 149 147 150 147 148 148 148 146 144 143 145 142 143 140 141 142 143 142 138 139 141 144 147 156 161 147 132 129 124 121 120 122 123 120 115 109 100 82 40 11 356 332 134 146 131 134 133 132 128 125 129 132 131 139 131 128 124 117 109 104 108 99 98 98 95 90
124 113 109 108 98 103 101 98 104 114 120 122 126 140 146 139 131 150 145 141 147 149 149 148 149 147 145 146 147 146 146 145 143 146 149 144 143 143 143 145 147 151 161 168 162 141 136 134 128 125 126 127 123 119 115 107 83 44 8 346 179 154 147 128 123 131 135 139 130 133 134 152 145 137 129 121 116 112 117 107 110 101 92 98 98
117 105 109 125 121 120 108 103 105 101 102 106 113 150 142 126 143 167 154 151 143 159 156 148 153 150 150 153 151 151 153 153 151 149 142 141 145 145 144 150 151 155 163 173 176 157 141 138 134 128 132 135 128 117 108 93 78 48 19 352 175 161 145 126 124 129 133 129 136 137 166 156 151 142 134 131 132 130 115 110 100 101 96 93 101
122 132 132 130 133 128 121 114 110 102 100 103 119 127 146 136 164 162 145 142 167 171 158 152 153 153 154 159 151 154 163 163 159 151 150 148 147 145 151 152 153 156 164 173 186 175 148 143 134 131 134 144 120 108 103 90 75 57 37 31 160 157 132 129 130 122 115 139 141 141 168 153 153 148 142 143 143 131 124 122 120 108 101 93 90
127 134 125 137 138 129 126 119 115 118 105 99 103 115 149 148 157 149 142 156 163 157 154 160 147 119 147 178 151 142 147 135 162 150 158 151 151 151 158 162 155 160 166 172 180 209 182 143 138 141 138 123 113 107 102 88 79 66 55 61 103 104 135 129 133 124 130 144 137 158 167 157 158 151 148 145 139 132 135 133 125 118 116 119 109
140 140 132 132 140 137 131 126 123 123 119 114 105 117 118 120 125 131 142 144 146 120 163 156 145 125 135 204 184 150 136 148 148 159 141 162 165 166 171 167 162 165 171 175 172 188 230 164 131 138 129 110 95 66 82 81 80 71 62 76 81 115 124 141 136 142 140 140 143 189 173 166 166 156 150 147 142 143 144 130 121 121 125 111 107
143 133 135 139 124 134 135 133 131 130 127 127 110 105 103 104 94 96 123 145 142 131 100 95 66 133 162 199 186 131 134 145 156 157 155 172 177 174 174 169 175 172 177 178 174 176 200 242 116 113 110 107 92 74 73 65 66 65 63 69 86 112 120 127 135 148 153 158 148 190 178 177 169 156 152 151 148 145 138 131 129 127 117 115 112
127 148 145 125 127 121 129 137 134 132 130 125 102 103 113 110 98 88 128 85 86 119 110 101 103 116 146 226 172 133 113 137 162 169 167 176 195 185 177 176 171 179 181 181 174 177 187 210 149 99 84 78 96 85 63 22 61 60 77 81 92 124 135 142 146 150 161 174 171 192 188 188 176 161 158 156 150 151 149 137 138 132 124 118 121
136 122 130 146 129 122 119 127 137 132 129 125 117 116 112 117 129 140 139 129 137 144 131 125 142 143 182 215 152 114 109 121 145 182 152 159 136 112 206 158 191 184 179 162 165 175 162 143 76 93 93 85 87 71 46 32 34 19 51 70 89 122 145 145 151 167 175 188 177 201 199 193 179 171 166 161 155 160 163 146 147 137 130 132 129
147 143 154 129 123 121 118 117 135 138 119 94 98 139 118 110 110 143 136 121 131 140 128 139 133 147 172 174 150 103 122 126 131 133 159 150 163 184 182 165 173 173 135 158 144 134 142 177 150 122 110 94 98 106 69 61 26 39 342 18 86 125 161 162 165 175 186 197 203 209 206 190 186 180 170 165 161 164 167 153 150 142 142 139 154
144 146 132 129 122 118 119 123 127 123 115 112 93 83 102 85 98 125 134 126 127 137 149 162 169 165 170 174 147 139 142 153 157 162 173 163 183 182 184 169 165 147 149 172 170 161 172 185 166 148 115 113 103 102 102 90 81 80 18 327 4 141 166 179 178 180 195 208 214 224 207 193 197 192 180 176 166 169 165 168 171 165 161 157 153
116 138 135 134 133 120 126 126 125 127 124 123 115 110 102 126 156 156 122 147 142 141 140 163 158 180 163 178 157 156 163 172 180 184 186 183 192 183 154 165 162 172 167 174 176 172 179 202 169 143 127 104 101 100 114 129 157 141 113 316 302 250 178 189 192 189 196 205 207 226 210 200 200 207 191 188 175 172 174 181 177 167 170 168 165
134 150 149 130 135 130 128 131 133 139 136 133 125 116 120 114 95 101 134 156 135 153 158 158 158 149 164 169 156 162 179 178 180 195 182 193 185 159 160 187 188 167 157 181 173 178 199 193 193 179 144 151 158 196 133 146 168 167 164 167 235 265 216 194 204 206 201 198 203 216 219 202 202 210 201 196 187 183 182 178 179 176 176 178 177
156 148 138 137 130 128 134 136 134 137 136 126 132 126 125 115 115 111 117 111 53 1 174 164 157 154 168 182 183 181 185 187 191 191 190 200 190 153 181 179 227 169 170 189 180 181 193 195 212 181 175 184 215 214 161 168 176 196 189 201 190 226 228 203 205 213 214 203 201 206 219 206 203 204 209 197 198 186 187 187 184 185 182 191 190
142 142 145 148 144 132 133 136 141 143 137 136 146 135 130 127 129 114 97 119 117 100 319 166 152 161 171 189 207 201 196 200 193 194 208 201 205 110 169 221 255 210 172 177 166 192 192 202 207 200 194 188 218 187 176 224 191 197 214 217 218 202 222 214 211 209 212 218 206 200 213 212 201 204 208 203 205 195 192 194 194 198 195 202 194
148 161 160 154 142 146 141 142 141 143 143 148 151 146 139 140 142 138 119 114 149 124 201 304 110 58 61 210 264 310 336 317 227 228 223 213 203 118 138 205 237 267 144 168 178 192 202 216 244 226 201 177 241 228 228 236 265 208 201 229 220 217 223 216 213 212 225 217 213 205 199 211 205 201 208 210 204 204 200 200 197 204 202 199 196
180 156 159 151 154 154 142 146 141 144 150 158 161 161 139 130 135 149 154 167 148 108 111 290 56 49 40 16 1 336 14 318 312 274 334 342 27 65 115 207 204 165 224 201 162 173 210 213 250 305 310 64 296 277 269 227 265 271 223 197 213 228 213 220 220 206 216 224 219 207 204 202 212 206 208 208 203 201 205 204 199 206 203 198 198
156 151 135 152 155 148 138 139 144 149 156 152 154 156 146 119 109 105 117 80 76 102 119 98 129 109 82 287 252 319 355 27 14 13 266 255 303 206 156 177 214 167 140 268 175 168 149 126 356 35 313 323 308 322 332 311 297 293 281 263 215 227 204 213 218 215 212 222 220 213 203 193 202 213 212 211 204 201 205 208 207 210 206 201 199
128 141 158 160 150 150 146 146 156 153 150 158 163 160 123 107 104 90 92 118 108 101 92 76 83 132 173 236 180 107 224 138 114 209 324 36 292 254 213 186 173 146 123 268 247 189 158 137 108 88 25 11 352 329 306 286 299 290 281 274 264 235 214 223 208 214 210 215 209 223 201 192 193 202 210 215 216 209 206 211 214 210 211 208 207
154 159 152 147 154 164 163 152 148 143 148 152 132 107 101 110 127 127 111 120 108 92 92 104 99 71 205 230 110 104 52 67 95 59 257 53 203 233 117 37 176 189 168 205 221 194 160 136 139 117 58 356 347 317 306 289 287 281 280 264 255 231 220 224 222 217 210 181 209 217 211 201 195 199 204 200 214 221 211 209 215 213 203 211 210
159 153 153 156 157 168 141 133 146 144 127 98 91 80 86 103 113 113 111 84 81 90 104 115 103 117 205 255 69 80 59 51 97 168 174 219 238 119 69 215 259 143 183 216 211 112 109 185 147 158 150 201 290 314 328 347 318 289 276 262 238 217 209 208 216 225 162 200 205 207 207 210 207 205 201 194 200 210 222 213 211 215 204 205 215
163 154 157 160 163 151 148 148 138 125 124 119 94 82 75 85 87 86 77 69 85 114 116 100 104 130 125 121 89 108 101 83 112 280 157 230 254 1 77 330 348 54 86 78 73 131 171 181 178 184 184 189 221 251 277 18 329 317 304 258 228 210 214 206 210 200 195 217 211 208 210 208 198 204 196 197 198 201 206 220 213 210 212 207 211
156 155 148 130 123 139 136 132 125 118 107 100 90 80 81 76 67 71 69 68 71 78 90 86 85 78 62 58 65 65 67 69 85 49 307 321 30 52 53 347 304 52 80 159 233 221 139 140 139 154 203 195 205 185 138 107 287 304 314 290 216 218 213 204 194 193 203 220 219 221 204 212 204 201 200 199 195 194 206 203 204 202 214 215 214
155 153 143 135 138 136 126 117 125 124 113 97 92 83 69 79 93 70 63 53 67 83 62 79 65 60 50 68 78 73 65 85 98 128 111 66 54 61 112 210 52 64 93 58 46 5 83 158 191 183 192 212 173 151 143 145 279 310 314 320 279 222 214 208 199 203 205 217 224 203 216 207 204 210 207 203 192 196 201 200 201 208 202 218 220
161 163 149 154 159 155 141 137 142 137 129 124 121 131 111 72 44 70 111 85 104 82 65 46 61 48 49 55 71 74 75 59 49 58 48 64 71 56 28 25 70 73 64 73 58 91 170 149 131 132 157 209 237 158 148 142 195 300 321 320 316 279 214 182 216 215 214 218 210 208 215 201 211 209 213 196 201 201 199 198 201 200 206 203 220
193 176 167 164 162 157 148 144 142 144 145 149 159 147 156 166 157 177 143 129 106 105 100 51 68 68 63 55 60 77 74 65 65 76 66 73 70 61 43 37 49 58 72 70 86 70 14 356 54 65 56 54 62 22 47 149 147 147 300 318 328 313 262 192 218 234 228 218 210 216 208 214 216 212 196 194 208 205 209 203 195 201 203 205 208
175 178 175 149 152 162 159 151 155 151 157 161 153 151 139 152 142 182 146 116 55 187 125 67 70 83 64 55 59 63 74 63 53 68 76 67 81 76 60 54 46 61 75 59 48 48 38 35 45 82 94 87 97 2 39 70 134 119 123 0 303 350 321 329 243 246 227 220 201 219 216 220 225 213 193 196 206 211 212 204 202 200 203 207 205
177 179 160 159 161 167 171 163 161 155 156 180 155 107 105 104 71 120 81 96 137 103 66 51 59 63 49 44 44 46 60 58 50 75 78 72 79 85 83 68 59 59 85 77 52 38 37 45 48 56 62 92 100 69 346 28 124 150 168 182 257 61 339 356 332 299 278 242 211 222 216 223 225 217 188 209 211 210 215 205 209 207 208 207 205
188 185 171 173 171 177 181 173 165 162 163 169 134 125 102 77 85 64 82 78 61 67 84 46 32 69 75 65 25 30 58 58 41 56 76 78 69 73 75 72 66 54 69 74 61 46 42 47 49 61 47 90 107 121 81 55 49 22 117 116 291 273 219 327 333 285 359 347 250 251 254 267 253 236 230 240 236 223 219 216 215 211 214 211 208
196 189 180 180 170 168 169 178 164 150 161 164 148 140 140 138 138 132 134 116 134 143 160 169 179 138 154 179 48 32 58 60 44 57 71 76 68 65 68 72 71 61 63 73 69 54 41 44 34 60 53 18 70 77 61 14 37 50 47 65 145 207 258 272 33 297 341 278 300 263 204 213 217 215 222 238 235 235 214 229 216 222 215 214 214
192 173 182 186 175 165 171 176 173 164 160 160 164 145 142 157 169 171 169 168 167 213 183 177 158 186 127 117 102 33 41 77 53 62 73 81 86 77 77 76 75 71 67 69 63 60 55 47 34 49 40 37 50 70 38 5 22 31 13 32 30 74 239 276 232 260 309 311 351 347 348 237 235 216 224 225 224 223 225 221 222 222 216 210 212
168 173 183 186 175 171 171 178 179 169 165 159 172 170 159 172 173 177 175 166 172 185 176 169 139 126 127 139 108 66 42 55 83 65 78 87 91 83 87 83 80 79 75 70 75 70 72 57 54 56 46 44 51 73 65 32 55 12 349 21 11 350 326 291 277 262 286 285 304 294 211 90 5 255 228 243 235 232 234 232 238 233 226 222 217
172 183 187 176 173 180 176 170 179 170 168 168 169 189 168 171 174 169 183 211 189 162 130 120 137 132 129 116 108 66 52 43 65 88 74 92 87 93 86 86 85 83 87 87 80 75 75 76 67 60 61 50 48 56 65 44 42 34 11 18 9 16 315 263 314 338 309 314 306 312 321 326 319 249 178 191 218 215 214 216 217 224 219 219 213
163 165 170 173 184 180 177 174 184 183 173 173 173 181 174 156 161 177 178 196 160 99 125 130 137 138 151 157 128 103 87 86 48 69 85 94 102 97 95 96 99 95 87 91 85 76 73 74 74 81 79 75 49 60 73 62 51 47 50 33 36 1 11 22 36 7 319 267 286 309 306 318 319 307 326 308 271 253 231 210 210 220 223 221 215
163 167 177 189 190 187 181 181 190 182 171 176 173 183 176 163 175 178 181 178 183 158 138 141 135 132 161 185 169 160 129 125 116 93 101 117 111 110 109 104 98 100 102 96 90 92 82 81 78 76 73 78 69 69 63 51 52 52 46 43 48 39 30 23 8 4 354 334 342 326 329 324 313 308 319 337 325 299 261 243 231 218 218 222 218